TimePDT,TemperatureF,Dew PointF,Humidity,Sea Level PressureIn,VisibilityMPH,Wind Direction,Wind SpeedMPH,Gust SpeedMPH,PrecipitationIn,Events,Conditions,WindDirDegrees,DateUTC
12:53 AM,57.0,55.9,96,29.94,3.0,SSE,4.6,-,N/A,,Overcast,150,2012-10-20 07:53:00
12:59 AM,57.2,55.4,94,29.94,1.8,SSE,4.6,-,N/A,,Overcast,150,2012-10-20 07:59:00
1:10 AM,57.2,55.4,94,29.94,1.2,SE,3.5,-,N/A,,Overcast,130,2012-10-20 08:10:00
1:37 AM,57.2,55.4,94,29.94,1.8,Calm,Calm,-,N/A,,Overcast,0,2012-10-20 08:37:00
1:51 AM,57.2,55.4,94,29.94,1.0,Calm,Calm,-,N/A,,Mist,0,2012-10-20 08:51:00
1:53 AM,57.0,55.9,96,29.94,1.0,Calm,Calm,-,N/A,,Mist,0,2012-10-20 08:53:00
2:02 AM,57.2,55.4,94,29.94,0.8,Calm,Calm,-,N/A,,Mist,0,2012-10-20 09:02:00
2:53 AM,57.0,55.9,96,29.93,0.5,Calm,Calm,-,N/A,Fog,Fog,0,2012-10-20 09:53:00
3:53 AM,57.0,55.9,96,29.92,0.5,Calm,Calm,-,N/A,Fog,Fog,0,2012-10-20 10:53:00
4:08 AM,57.2,57.2,100,29.92,1.0,Calm,Calm,-,N/A,,Mist,0,2012-10-20 11:08:00
4:19 AM,57.2,55.4,94,29.92,2.0,WSW,3.5,-,N/A,,Overcast,240,2012-10-20 11:19:00
4:27 AM,57.2,55.4,94,29.92,4.0,Calm,Calm,-,N/A,,Overcast,0,2012-10-20 11:27:00
4:53 AM,57.0,57.0,100,29.92,6.0,Calm,Calm,-,0.01,,Overcast,0,2012-10-20 11:53:00
5:53 AM,57.0,55.9,96,29.91,7.0,East,3.5,-,N/A,,Overcast,90,2012-10-20 12:53:00
6:40 AM,57.2,55.4,94,29.91,10.0,Calm,Calm,-,N/A,,Overcast,0,2012-10-20 13:40:00
6:53 AM,57.0,55.9,96,29.91,10.0,Calm,Calm,-,N/A,,Overcast,0,2012-10-20 13:53:00
7:53 AM,57.0,55.0,93,29.91,10.0,Calm,Calm,-,N/A,,Overcast,0,2012-10-20 14:53:00
8:53 AM,57.9,55.9,93,29.92,10.0,Calm,Calm,-,N/A,,Overcast,0,2012-10-20 15:53:00
9:53 AM,59.0,55.9,90,29.92,10.0,WSW,4.6,-,N/A,,Overcast,250,2012-10-20 16:53:00
10:53 AM,57.9,55.9,93,29.92,10.0,Calm,Calm,-,N/A,,Overcast,0,2012-10-20 17:53:00
11:53 AM,59.0,55.9,90,29.92,10.0,South,5.8,-,N/A,,Overcast,190,2012-10-20 18:53:00
12:53 PM,60.1,55.0,83,29.90,10.0,SE,4.6,-,N/A,,Overcast,140,2012-10-20 19:53:00
1:53 PM,62.1,55.0,78,29.88,10.0,SE,4.6,-,N/A,,Overcast,130,2012-10-20 20:53:00
2:17 PM,62.6,55.4,77,29.87,10.0,Calm,Calm,-,N/A,,Overcast,0,2012-10-20 21:17:00
2:53 PM,64.0,55.0,73,29.86,10.0,Calm,Calm,-,N/A,,Overcast,0,2012-10-20 21:53:00
3:53 PM,64.9,55.9,73,29.85,10.0,East,4.6,-,N/A,,Scattered Clouds,80,2012-10-20 22:53:00
4:53 PM,64.9,55.0,70,29.84,10.0,ESE,8.1,-,N/A,,Partly Cloudy,120,2012-10-20 23:53:00
5:53 PM,62.1,54.0,75,29.85,10.0,SSE,4.6,-,N/A,,Clear,160,2012-10-21 00:53:00
6:53 PM,59.0,55.0,87,29.85,10.0,South,5.8,-,N/A,,Scattered Clouds,170,2012-10-21 01:53:00
7:21 PM,59.0,53.6,82,29.85,10.0,ESE,4.6,-,N/A,,Mostly Cloudy,120,2012-10-21 02:21:00
7:53 PM,57.0,52.0,83,29.86,10.0,ESE,3.5,-,N/A,,Mostly Cloudy,110,2012-10-21 02:53:00
8:06 PM,57.2,53.6,88,29.86,10.0,East,4.6,-,N/A,,Mostly Cloudy,100,2012-10-21 03:06:00
8:33 PM,57.2,51.8,82,29.87,10.0,East,4.6,-,N/A,,Overcast,100,2012-10-21 03:33:00
8:53 PM,57.0,51.1,81,29.87,10.0,ENE,4.6,-,N/A,,Overcast,60,2012-10-21 03:53:00
9:53 PM,55.9,50.0,80,29.88,10.0,East,6.9,-,N/A,,Overcast,80,2012-10-21 04:53:00
10:11 PM,55.4,50.0,82,29.88,10.0,East,5.8,-,N/A,,Scattered Clouds,90,2012-10-21 05:11:00
10:37 PM,55.4,50.0,82,29.89,10.0,ESE,3.5,-,N/A,,Mostly Cloudy,110,2012-10-21 05:37:00
10:53 PM,54.0,48.9,83,29.89,10.0,Calm,Calm,-,N/A,,Overcast,0,2012-10-21 05:53:00
11:37 PM,53.6,48.2,82,29.89,10.0,ENE,5.8,-,N/A,,Mostly Cloudy,60,2012-10-21 06:37:00
11:44 PM,51.8,48.2,88,29.89,10.0,ENE,3.5,-,N/A,,Mostly Cloudy,60,2012-10-21 06:44:00
11:51 PM,51.8,48.2,88,29.89,10.0,ENE,4.6,-,N/A,,Scattered Clouds,60,2012-10-21 06:51:00
11:53 PM,52.0,48.0,86,29.89,10.0,ENE,4.6,-,N/A,,Scattered Clouds,70,2012-10-21 06:53:00